Location: Peebles
(55.6412°N, 3.1714°W)
Time: 15:30:17
(UTC+01:00)

Cosmos 1943 Rocket - Pass Details

Date: 26 September 2021
Orbit: 810 x 845 km, 71.0° (Epoch: 17 October)

Event Time Altitude Azimuth Distance (km) Brightness Sun altitude
Rises 19:52:45 0° 202° (SSW) 3,352 5.5 -8.2°
Reaches altitude 10° 19:55:10 10° 200° (SSW) 2,428 4.7 -8.5°
Maximum altitude 20:00:42 69° 119° (ESE) 893 2.2 -9.3°
Drops below altitude 10° 20:06:19 10° 37° (NE) 2,466 4.4 -10.0°
Sets 20:08:47 0° 35° (NE) 3,409 5.1 -10.4°
